Regional Weather Roundup
Issued by NWS

Home | Current Version | Previous Version | Graphics & Text | Print | Product List | Glossary On
Versions: 1 2 3 4 5 6 7 8 9 10 11 12 13 14 15 16 17 18 19 20 21 22 23 24 25 26 27 28 29 30 31 32 33 34 35 36 37 38 39 40 41 42 43 44 45 46 47 48 49 50
000
ASUS43 KDTX 090001
RWRMI
MICHIGAN HOURLY REGIONAL WEATHER ROUNDUP
NATIONAL WEATHER SERVICE DETROIT/PONTIAC MI
700 PM EST MON FEB 08 2016

NOTE: "FAIR" INDICATES FEW OR NO CLOUDS BELOW 12,000 FEET WITH NO
SIGNIFICANT WEATHER AND/OR OBSTRUCTION TO VISIBILITY.

MIZ047>049-052>055-059>063-066>070-074>076-081>083-090100-
SOUTHEAST LOWER MICHIGAN

CITY           SKY/WX    TMP DP  RH WIND       PRES   REMARKS
ADRIAN         PTCLDY    34  24  67 W6        29.62R WCI  29
6HR MIN TEMP:  34; 6HR MAX TEMP:  42;

ALMA           CLOUDY    35  28  73 W5        29.60S WCI  31
ANN ARBOR      CLOUDY    35  29  78 W7        29.59S WCI  29
BAD AXE        MIX PCPN  36  32  85 N5        29.57R WCI  32
CARO           CLOUDY    36  30  80 W3        29.56S
DETROIT CITY   CLOUDY    38  28  67 N5        29.59R WCI  34
6HR MIN TEMP:  38; 6HR MAX TEMP:  41; 6HR PCP: TRACE;

DETROIT        LGT RAIN  36  32  85 W9        29.61R WCI  29
6HR MIN TEMP:  36; 6HR MAX TEMP:  42; 6HR PCP: TRACE;

FLINT          CLOUDY    38  29  70 W6        29.59R WCI  33
6HR MIN TEMP:  37; 6HR MAX TEMP:  42;

GROSSE ILE     LGT SNOW  36  34  93 CALM      29.59R
HILLSDALE      PTCLDY    32  28  85 W10       29.61R WCI  24
6HR MIN TEMP:  32; 6HR MAX TEMP:  39;

HOWELL         CLOUDY    36  26  67 W5        29.59R WCI  32

CITY           SKY/WX    TMP DP  RH WIND       PRES   REMARKS
JACKSON        CLOUDY    35  26  69 W7        29.60R WCI  29
6HR MIN TEMP:  35; 6HR MAX TEMP:  41;

LAMBERTVILLE   CLOUDY    36  27  69 W7        29.62R WCI  31
6HR MIN TEMP:  36; 6HR MAX TEMP:  42;

LANSING        CLOUDY    37  27  67 W10       29.61R WCI  30
6HR MIN TEMP:  37; 6HR MAX TEMP:  40;

LAPEER         CLOUDY    36  30  79 CALM      29.57S
6HR MIN TEMP:  36; 6HR MAX TEMP:  40;

MASON          CLOUDY    36  28  72 W5        29.60R WCI  32
MONROE         CLOUDY    35  33  92 CALM      29.60R
6HR MIN TEMP:  35; 6HR MAX TEMP:  42;

MT. CLEMENS    CLOUDY    37  29  72 W3        29.56R
6HR MIN TEMP:  37; 6HR MAX TEMP:  41; 6HR PCP:  0.02;

PONTIAC        CLOUDY    36  28  73 N7        29.57R WCI  30
6HR MIN TEMP:  36; 6HR MAX TEMP:  40;

PORT HOPE        N/A     33  32  96 W7        29.55S WCI  27
6HR MIN TEMP:  33; 6HR MAX TEMP:  36; 6HR PCP:  0.09;

PORT HURON     LGT RAIN  36  32  87 NW7       29.58R WCI  30
TRI CITIES     CLOUDY    37  28  70 W7        29.59R WCI  32
6HR MIN TEMP:  37; 6HR MAX TEMP:  42;

MIDLAND        MOCLDY    37  24  59 W5        29.58R WCI  33
6HR MIN TEMP:  37; 6HR MAX TEMP:  42;

TROY           CLOUDY    39  28  64 NW3       29.60S
SAGINAW HB     CLOUDY    37  30  75 SW6       29.58S WCI  33
$$
MIZ043>046-050>051-056>058-064>065-071>073-077>080-090100-
SOUTHWEST LOWER MICHIGAN

CITY           SKY/WX    TMP DP  RH WIND       PRES   REMARKS
BATTLE CREEK   CLOUDY    32  30  92 SW8       29.63R WCI  25
6HR MIN TEMP:  32; 6HR MAX TEMP:  37; 6HR PCP: TRACE;

BENTON HARBOR  LGT SNOW  30  27  88 W9        29.70R FOG     WCI  22
6HR MIN TEMP:  30; 6HR MAX TEMP:  34; 6HR PCP:  0.07;

BIG RAPIDS     CLOUDY    35  24  65 CALM      29.60R
6HR MIN TEMP:  35; 6HR MAX TEMP:  40;

COLDWATER      FLURRIES  32  30  91 W12       29.64R WCI  23
6HR MIN TEMP:  32; 6HR MAX TEMP:  37;

FREMONT        CLOUDY    34  32  93 W5        29.62R WCI  30
HOLLAND        LGT SNOW  33  30  88 W8        29.66R FOG     WCI  26
6HR MIN TEMP:  33; 6HR MAX TEMP:  39; 6HR PCP:  0.01;

GRAND RAPIDS   MOCLDY    34  30  85 NW7       29.62R WCI  28
6HR MIN TEMP:  34; 6HR MAX TEMP:  41;

IONIA          CLOUDY    35  29  79 W8        29.61R WCI  28
6HR MIN TEMP:  33; 6HR MAX TEMP:  39;

KALAMAZOO      FLURRIES  33  29  85 W12       29.64R WCI  24
6HR MIN TEMP:  33; 6HR MAX TEMP:  38; 6HR PCP:  0.01;

LUDINGTON      CLOUDY    33  31  92 N8        29.65R WCI  26
6HR MIN TEMP:  33; 6HR MAX TEMP:  38;

MARSHALL       CLOUDY    32  29  89 W9        29.62R WCI  24
6HR MIN TEMP:  32; 6HR MAX TEMP:  38;

MOUNT PLEASANT PTCLDY    35  25  67 W5        29.58S WCI  31
6HR MIN TEMP:  35; 6HR MAX TEMP:  42;

MUSKEGON       CLOUDY    34  29  82 W9        29.65R WCI  27
6HR MIN TEMP:  34; 6HR MAX TEMP:  42; 6HR PCP: TRACE;

SOUTH HAVEN    LGT SNOW  31  30  94 W10       29.68R WCI  22
$$
MIZ016>042-090100-
NORTHERN LOWER MICHIGAN

CITY           SKY/WX    TMP DP  RH WIND       PRES   REMARKS
ALPENA         CLOUDY    35  32  88 N8        29.60R WCI  29
6HR MIN TEMP:  35; 6HR MAX TEMP:  41;

BEAVER ISLAND  CLOUDY    27  23  85 N12G18    29.68R WCI  17
6HR MIN TEMP:  27; 6HR MAX TEMP:  34;

BELLAIRE       CLOUDY    32  28  86 N9G17     29.65R WCI  24
6HR MIN TEMP:  32; 6HR MAX TEMP:  41;

CADILLAC       CLOUDY    34  31  88 NW8       29.58R WCI  27
CHARLEVOIX     CLOUDY    31  27  87 N17G23    29.68R WCI  19
FRANKFORT      CLOUDY    32  28  84 N7        29.66R WCI  26
GAYLORD        CLOUDY    33  30  88 NW7       29.59R WCI  27
6HR MIN TEMP:  33; 6HR MAX TEMP:  40;

GRAYLING       MOCLDY    35  30  84 NW9       29.59R WCI  27
6HR MIN TEMP:  33; 6HR MAX TEMP:  39;

HARBOR SPRINGS CLOUDY    32  28  87 NW10G18   29.63S WCI  23
HOUGHTON LAKE  CLOUDY    35  27  72 NW10      29.57S WCI  27
6HR MIN TEMP:  35; 6HR MAX TEMP:  41;

MANISTEE       CLOUDY    34  27  75 N12       29.65R WCI  25
OSCODA         CLOUDY    33  32  94 N3        29.57S
6HR MIN TEMP:  33; 6HR MAX TEMP:  39;

PELLSTON       CLOUDY    32  28  85 N10       29.64R WCI  24
6HR MIN TEMP:  32; 6HR MAX TEMP:  41;

ROGERS CITY    CLOUDY    34  32  93 N6        29.62R FOG     WCI  29
TRAVERSE CITY  CLOUDY    33  27  78 N13       29.64R WCI  24
6HR MIN TEMP:  33; 6HR MAX TEMP:  39;

$$
MIZ007>008-015-090100-
EASTERN UPPER MICHIGAN

CITY           SKY/WX    TMP DP  RH WIND       PRES   REMARKS
KINROSS        CLOUDY    28  28 100 NW15      29.63S WCI  17
6HR MIN TEMP:  28; 6HR MAX TEMP:  36;

MACKINAC ISLAN CLOUDY    31  31 100 N9        29.63S FOG     WCI  23
6HR MIN TEMP:  31; 6HR MAX TEMP:  40;

NEWBERRY       CLOUDY    25  22  89 NW7       29.67R WCI  17
6HR MIN TEMP:  25; 6HR MAX TEMP:  33;

S. S. MARIE    CLOUDY    30  26  85 NW14G20   29.64R WCI  19
6HR MIN TEMP:  30; 6HR MAX TEMP:  37;

$$
MIZ004>006-011>014-085-090100-
CENTRAL UPPER MICHIGAN

CITY           SKY/WX    TMP DP  RH WIND       PRES   REMARKS
MANISTIQUE     CLOUDY    22  16  78 N16G24    29.70R WCI   8
6HR MIN TEMP:  22; 6HR MAX TEMP:  30;

ESCANABA       CLOUDY    21  12  68 N6G17     29.74R WCI  14
6HR MIN TEMP:  21; 6HR MAX TEMP:  28;

MENOMINEE      CLOUDY    25  14  63 N20       29.73R WCI  11
6HR MIN TEMP:  25; 6HR MAX TEMP:  30;

SAWYER-GWINN   FLURRIES  14   9  79 N14G22    29.72R WCI  -1
$$
MIZ001>003-009>011-084-090100-
WESTERN UPPER MICHIGAN

CITY           SKY/WX    TMP DP  RH WIND       PRES   REMARKS
IRON MOUNTAIN  CLOUDY    17   9  70 NW13      29.72R HAZE    WCI   4
6HR MIN TEMP:  17; 6HR MAX TEMP:  23; 6HR PCP: TRACE;

HOUGHTON       LGT SNOW  13   8  81 NW13      29.76S WCI  -2
6HR MIN TEMP:  13; 6HR MAX TEMP:  15; 6HR PCP: TRACE;

COPPER HARBOR    N/A     17  13  84 N28G35    29.77R WCI  -2
6HR MIN TEMP:  16; 6HR MAX TEMP:  19;

IRONWOOD       CLOUDY    14  10  85 NW15      29.79S WCI  -1
6HR MIN TEMP:  12; 6HR MAX TEMP:  16;

$$

ABBREVIATIONS USED IN REMARKS
   TC - TEMPERATURE IN CELSIUS
  WCI - WIND CHILL INDEX
   HX - HEAT INDEX
  VSB - VISIBILITY




USA.gov is the U.S. government's official web portal to all federal, state and local government web resources and services.